User: anonymous   Login
Location: Unspecified
(0.0000°N, 0.0000°E)
Time: 22:32:47
(UTC+00:00)
Language:

BRITE TORONTO - Orbit

View from above orbital plane
View from above orbital plane
View from above satellite
View from above satellite

Ground track
Ground track

The orbit data is extracted from the following two-line orbital elements,

1 40020U 14033L   18203.56352726  .00000047  00000-0  16212-4 0  9994
2 40020  97.7825  60.0819 0088575 131.5919 229.2921 14.66506539218779
Epoch (UTC): 22 July 2018 13:31:28
Eccentricity: 0.0088575
inclination: 97.7825°
perigee height: 610 km
apogee height: 734 km
right ascension of ascending node: 60.0819°
argument of perigee: 131.5919°
revolutions per day: 14.66506539
mean anomaly at epoch: 229.2921°
orbit number at epoch: 21877

The dashed part of the orbit path shows where the satellite is in the earth's shadow,  

DLR